Location: Peebles
(55.6412°N, 3.1714°W)
Time: 10:54:50
(UTC+00:00)

CUTE-I - Pass Details

Date: 18 December 2023
Orbit: 807 x 823 km, 98.7° (Epoch: 24 February)

Event Time Altitude Azimuth Distance (km) Brightness Sun altitude
Rises 18:34:05 0° 199° (SSW) 3,329 ? -22.6°
Reaches altitude 10° 18:36:47 10° 212° (SSW) 2,405 ? -22.9°
Maximum altitude 18:41:14 27° 269° (W) 1,543 ? -23.6°
Drops below altitude 10° 18:45:44 10° 326° (NW) 2,428 ? -24.2°
Sets 18:48:29 0° 338° (NNW) 3,368 ? -24.6°
